STARLINK-73

decayed
NORAD ID: 44284 Int'l Des: 2019-029 Owner: SPXS Country: US Constellation: starlink
LEOCIRCULAR
Group

About STARLINK-73

Description loading...

Altitude History

Altitude vs Time

uPlot chart will show altitude changes over time

Two-Line Element Set

1 44284U 19029BB 20271.80085332 .18352570 12342-4 18995-2 0 9995
2 44284 52.9805 52.5060 0006216 304.8100 55.7759 16.36958608 75318
Epoch: Sep 27, 2020 • Age: 43534 hours

Current Status

Position data unavailable
Launch Date May 24, 2019
Age 6.3 years
Decay Date Sep 27, 2020
Type internet

Technical Details

Classification Payload
Mass 227.00 kg
Dry Mass 219.00 kg
Total Mass 227.00 kg
Length 0.20 m
Diameter 2.80 m
Span 9.00 m
Shape Box + pan
Manufacturer SPXS
Bus Type Starlink
Phase Status Reentered
Owner/State SPXS/US

Large Constellations

Loading constellations...